Regional Weather Roundup
Issued by NWS New Orleans/Baton Rouge, LA

Home | Current Version | Previous Version | Text Only | Print | Product List | Glossary On
Versions: 1 2 3 4 5 6 7 8 9 10 11 12 13 14 15 16 17 18 19 20 21 22 23 24 25 26 27 28 29 30 31 32 33 34 35 36 37 38 39 40 41 42 43 44 45 46 47 48 49 50
736
ASUS44 KLIX 212305
RWRLIX
NEW ORLEANS REGIONAL WEATHER ROUNDUP
NATIONAL WEATHER SERVICE NEW ORLEANS LA
500 PM CST SUN DEC 21 2014

NOTE: "FAIR" INDICATES FEW OR NO CLOUDS BELOW 12,000 FEET WITH NO
      SIGNIFICANT WEATHER AND/OR OBSTRUCTIONS TO VISIBILITY.
      SKY/WX - SKY CONDITION AND SIGNIFICANT WEATHER.
      TMP - AIR TEMPERATURE.     DP    - DEWPOINT TEMPERATURE.
      RH  - RELATIVE HUMIDITY.   PRES  - PRESSURE.
      HI  - HEAT INDEX.          WCI   - WIND CHILL INDEX.

*  THESE STATIONS ARE NOT NWS OR FAA STATIONS AND ARE NOT UNDER
   NWS QUALITY CONTROL.

LAZ038-040-048-061>063-065>067-069-220000-
SOUTHEAST LOUISIANA

CITY           SKY/WX    TMP DP  RH WIND       PRES   REMARKS
N.O. AUDUBON     N/A     56  53  91 MISG        N/A
N.O. INTL ARPT CLOUDY    56  51  84 E7        30.00F
N.O. LAKEFRONT CLOUDY    57  51  80 E5        30.01S
N.O. DOWNTOWN* CLOUDY    55  48  76 E5        30.01S
SLIDELL        CLOUDY    57  51  80 CALM      29.98F
BATON ROUGE    MOCLDY    58  49  72 CALM      29.98F
BOOTHVILLE     CLOUDY    57  55  93 VRB5      30.00S FOG
BELLE CHASSE   CLOUDY    56  52  86 NE7       30.00S
BOGALUSA*        N/A     60  51  70 SE3       30.02S
GALLIANO*      CLOUDY    58  55  87 MISG      29.99S
NEW ROADS*       N/A     56  49  77 CALM      29.99F
GONZALES*        N/A     56  54  92 CALM      29.98F
HAMMOND*       NOT AVBL
HOUMA*         PTCLDY    55  52  88 NE5       29.99F
PORT FOURCHON* MOCLDY    59  55  88 N7        30.04R

$$

MSZ070-080>082-220000-
SOUTHERN MISSISSIPPI

CITY           SKY/WX    TMP DP  RH WIND       PRES   REMARKS
MCCOMB         CLOUDY    57  49  74 SE5       29.99F
GULFPORT       CLOUDY    58  53  84 E5        29.99F
BILOXI         CLOUDY    58  54  89 E5        30.00S
PASCAGOULA     CLOUDY    57  53  86 NE3       30.01S
STENNIS ARPT*  MOCLDY    54  48  82 CALM      30.00F

$$

COASTAL OBSERVATIONS
LAKE AND NEARSHORE STATIONS

STATION/POSITION TIME  TEMP    WIND        PRES    WAVE
                       AIR SEA DIR/SP/G            HT/PER
                 (UTC) (F)     (DEG/KT/KT) (MB)    (FT/S)
PASCAGOULA       2300   57      10/  4/  6 1015.7
WAVELAND YACHT   2300   55     300/  1/  2 1015.2
GRAND ISLE       2300   58 60   60/  7/ 11 1015.3
SOUTHWEST PASS   2300   58                 1015.4
NEW CANAL        2300   55 56   60/  7/  8 1016.0
SHELL BEACH      2300   55 57   30/  8/  9 1015.5

OFFSHORE STATIONS

STATION/POSITION TIME  TEMP    WIND        PRES    WAVE
                       AIR SEA DIR/SP/G            HT/PER
                 (UTC) (F)     (DEG/KT/KT) (MB)    (FT/S)
64 S DAUPHIN ISL 2300   66 74   40/ 12/ 14 1014.7    2/ 6

$$




USA.gov is the U.S. government's official web portal to all federal, state and local government web resources and services.